Flag for U.S.A. Weather past 2 weeks in Canton, Ohio, U.S.A.

Now
33 °F

Passing clouds.


Feels Like: 23 °F
Forecast: 16 / 45 °F
Wind: 15 mph from Southwest

Location: Akron-Canton Regional Airport

Current Time: Mar 29, 2015 at 12:09:08 PM

Latest Report: Mar 29, 2015 at 10:51 AM


Visibility: 10 mi

Pressure: 30.34 "Hg

Humidity: 48%

Dew point: 15 °F

Location of CantonLocation

Historic Weather in Canton — Graph

°F

Canton temperature yesterday

Maximum temperature yesterday: 29 °F (at 3:51 PM)
Minimum temperature yesterday: 12 °F (at 6:51 AM)
Average temperature yesterday: 21 °F

Past Weeks' High & Low Weather Summary

 TemperatureHumidityPressure
High63 °F (Mar 16, 2:51 PM)93% (Mar 14, 10:51 AM)30.37 "Hg (Mar 14, 10:51 AM)
Low12 °F (Mar 28, 6:51 AM)26% (Mar 17, 2:51 PM)29.71 "Hg (Mar 17, 3:51 AM)
Average37 °F63%30.11 "Hg
* Reported Mar 14 10:51 AM — Mar 29 10:51 AM, Canton, Weather by CustomWeather, © 2015

Note: Actual official high and low records may vary slightly from our data, if they occured in-between our weather recording intervals... More about our weather records

Advertising

Canton weather history for previous 24 hours

 ConditionsComfort  
Time TempWeatherWind HumidityBarometerVisibility
10:51 AM
Sun, Mar 29
33 °FPassing clouds.15 mph48%30.34 "Hg10 mi
9:51 AM28 °FSunny.10 mph64%30.36 "Hg10 mi
8:51 AM24 °FSunny.7 mph68%30.37 "Hg10 mi
7:51 AM18 °FClear.5 mph74%30.37 "Hg10 mi
6:51 AM16 °FClear.6 mph74%30.36 "Hg10 mi
5:51 AM17 °FClear.6 mph70%30.35 "Hg10 mi
4:51 AM18 °FClear.6 mph68%30.34 "Hg10 mi
3:51 AM18 °FClear.6 mph68%30.35 "Hg10 mi
2:51 AM20 °FClear.6 mph62%30.36 "Hg10 mi
1:51 AM20 °FClear.3 mph62%30.36 "Hg10 mi
12:51 AM20 °FClear.3 mph62%30.35 "Hg10 mi
11:51 PM
Sat, Mar 28
21 °FClear.3 mph57%30.34 "Hg10 mi
10:51 PM21 °FClear.5 mph57%30.34 "Hg10 mi
9:51 PM22 °FClear.No wind55%30.34 "Hg10 mi
8:51 PM22 °FClear.7 mph55%30.33 "Hg10 mi
7:51 PM24 °FSunny.12 mph48%30.32 "Hg10 mi
6:51 PM26 °FPassing clouds.13 mph46%30.30 "Hg10 mi
5:51 PM28 °FPassing clouds.20 mph45%30.27 "Hg10 mi
4:51 PM28 °FPassing clouds.12 mph41%30.26 "Hg10 mi
3:51 PM29 °FPassing clouds.13 mph45%30.25 "Hg10 mi
2:51 PM28 °FPassing clouds.17 mph43%30.25 "Hg10 mi
1:51 PM27 °FPassing clouds.14 mph49%30.25 "Hg10 mi
12:51 PM26 °FPassing clouds.13 mph46%30.24 "Hg10 mi
Weather by CustomWeather, © 2015

See weather overviewHow to use our weather pages